Regional Weather Roundup
Issued by NWS

Home | Current Version | Previous Version | Text Only | Print | Product List | Glossary Off
Versions: 1 2 3 4 5 6 7 8 9 10 11 12 13 14 15 16 17 18 19 20 21 22 23 24 25 26 27 28 29 30 31 32 33 34 35 36 37 38 39 40 41 42 43 44 45 46 47 48 49 50

000
ASUS43 KLOT 251704
RWRIL

ILLINOIS REGIONAL WEATHER ROUNDUP
NATIONAL WEATHER SERVICE CHICAGO/ROMEOVILLE IL
1200 PM CDT SUN JUN 25 2017

NOTE: "FAIR" INDICATES FEW OR NO CLOUDS BELOW 12,000 FEET WITH NO
SIGNIFICANT WEATHER AND/OR OBSTRUCTIONS TO VISIBILITY.

* THESE STATIONS ARE NOT UNDER NWS QUALITY CONTROL. THEY ALSO MAY NOT
  REPORT WEATHER SUCH AS PRECIPITATION OR FOG.

ILZ001-002-007-009-015-016-024-251800-
NORTHWEST ILLINOIS

CITY           SKY/WX    TMP DP  RH WIND       PRES   REMARKS
MOLINE         PTSUNNY   69  47  45 W16       30.17S
STERLING*      MOSUNNY   68  47  46 W15       30.15S
SAVANNA*       CLOUDY    64  49  58 W13G21    30.15S
$$

ILZ003-004-008-010-011-017-018-251800-
NORTH CENTRAL ILLINOIS

CITY           SKY/WX    TMP DP  RH WIND       PRES   REMARKS
ROCKFORD       PTSUNNY   68  47  46 NW17G25   30.13S
FREEPORT*      PTSUNNY   66  49  53 W14G21    30.15S
ROCHELLE*      PTSUNNY   67  47  49 W17G24    30.14S
DE KALB*       PTSUNNY   67  47  49 W15G24    30.13S
PERU*          PTSUNNY   67  46  46 W16G24    30.15S
$$

ILZ005-006-012>014-019>023-251800-
NORTHEAST ILLINOIS

CITY           SKY/WX    TMP DP  RH WIND       PRES   REMARKS
CHICAGO-OHARE  PTSUNNY   69  45  41 W14G25    30.10S
CHICAGO-MIDWAY PTSUNNY   69  46  43 W17G25    30.11S
AURORA         MOSUNNY   70  47  43 W20G33    30.13F
LANSING*       PTSUNNY   68  42  39 W15G29    30.12S
JOLIET*        PTSUNNY   69  44  40 W10G22    30.13F
WAUKEGAN       PTSUNNY   66  49  54 VRB7G18   30.08S
DUPAGE AIRPORT PTSUNNY   66  48  52 NW16      30.11F
WHEELING       MOSUNNY   68  48  48 NW15G23   30.11S
MORRIS*        PTSUNNY   69  42  38 W17G24    30.12F
ROMEOVILLE*    PTSUNNY   70  41  34 NW18G28   30.12F
NORTHERLY ISL    N/A     67  43  41 SW7         N/A
$$

LMZ740>746-251800-
SOUTHERN LAKE MICHIGAN

STATION/POSITION SKY/WX   TEMP    WIND        PRES    VSBY  WAVE
                          AIR SEA DIR/SP/G                  HT/PER
                          (F)     (DEG/KT/KT) (MB)    (MI)  (FT/S)
SOUTHERN BUOY              60 61  280/ 16/ 19 1018.0          3/ 5
WILMETTE HARBOR            65 64  270/ 14/ 19   N/A           2/ 2
HARRISON CRIB              66     280/ 16/ 19   N/A
BURNHAM HARBOR             68                   N/A
CALUMET HARBOR             68     270/  6/ 14 1019.0F
BURNS HARBOR               65     280/ 13/ 15 1020.0S
MICHIGAN CITY              63     240/ 12/ 14   N/A
MICHIGAN CITY 6N           64 66  280/ 12/ 16   N/A           3/ 4
ST. JOSEPH                 63 69  270/ 14/ 19 1019.5R         4/ 5
$$

ILZ025>027-034>036-040-047-049-050-058-095>099-251800-
WEST-CENTRAL ILLINOIS

CITY           SKY/WX    TMP DP  RH WIND       PRES   REMARKS
QUINCY         SUNNY     73  46  38 NW16G23   30.22S
GALESBURG*     PTSUNNY   68  49  50 W16       30.20S
MACOMB*        MOSUNNY   70  46  41 NW17G24   30.22S
JACKSONVILLE*  SUNNY     73  44  35 W16G23    30.20F
PITTSFIELD*    SUNNY     73  47  39 W10G20    30.23S
$$

ILZ028>032-037-038-041>044-048-051>054-059>061-251800-
CENTRAL ILLINOIS

CITY           SKY/WX    TMP DP  RH WIND       PRES   REMARKS
PONTIAC        PTSUNNY   70  44  40 NW17G25   30.16F
BLOOMINGTON    MOSUNNY   70  45  40 NW13G25   30.18S
DECATUR        MOSUNNY   74  46  36 W15       30.18F
PEORIA         SUNNY     71  45  39 NW13G24   30.18S
LACON*         CLOUDY    69  46  42 W9G21     30.16S
LINCOLN*       SUNNY     74  46  36 W9G18     30.18F
SPRINGFIELD    SUNNY     75  45  34 W13G21    30.19F
TAYLORVILLE    SUNNY     74  46  37 NW18G25   30.20S
$$

ILZ033-039-045-046-055>057-062-063-251800-
EAST-CENTRAL ILLINOIS

CITY           SKY/WX    TMP DP  RH WIND       PRES   REMARKS
CHAMPAIGN      MOSUNNY   74  46  36 W14G25    30.17S
RANTOUL*       PTSUNNY   73  48  41 NW14G22   30.16F
MATTOON        SUNNY     74  52  46 W12G24    30.18S
PARIS*         SUNNY     72  52  48 W14G21    30.18F
$$

ILZ079-100>102-251800-
SOUTHWEST ILLINOIS

CITY           SKY/WX    TMP DP  RH WIND       PRES   REMARKS
ALTON          SUNNY     75  55  50 NW14      30.22F
BELLEVILLE     MOSUNNY   79  48  33 NW14      30.22S
CAHOKIA*       SUNNY     81  45  28 NW12      30.21F HX  80
SPARTA*        SUNNY     80  49  34 NW10G23   30.22F
$$

ILZ064>066-069>071-074>076-080>082-084>086-088>090-092>094-251800-
SOUTH-CENTRAL ILLINOIS

CITY           SKY/WX    TMP DP  RH WIND       PRES   REMARKS
CARBONDALE     SUNNY     81  54  39 W10       30.21F HX  81
CAIRO*         SUNNY     79  55  43 W8        30.24F
EFFINGHAM*     SUNNY     76  49  38 W10       30.20F
MARION         SUNNY     81  52  36 W7        30.23F HX  80
MT. VERNON     SUNNY     78  53  41 W7        30.21F
CENTRALIA*     SUNNY     79  54  42 W10       30.20F
SALEM*         SUNNY     78  51  39 W9        30.20F
METROPOLIS*    SUNNY     80  53  39 W5        30.25S HX  80
$$

ILZ067-068-072-073-078-083-087-091-251800-
SOUTHEAST ILLINOIS

CITY           SKY/WX    TMP DP  RH WIND       PRES   REMARKS
LAWRENCEVILLE  SUNNY     78  54  43 W15       30.19S
FLORA*         SUNNY    N/A N/A N/A NW10G22   30.20F
FAIRFIELD*     SUNNY     78  51  38 W7        30.19S
HARRISBURG*    SUNNY     80  53  39 W16G25    30.22F HX  80
ROBINSON*      SUNNY     75  52  44 W8        30.19S
CARMI*         SUNNY     80  54  40 W13       30.20F HX  80
$$

ABBREVIATIONS USED IN REMARKS
   TC - TEMPERATURE IN CELSIUS
  WCI - WIND CHILL INDEX
   HX - HEAT INDEX
  VSB - VISIBILITY
$$





USA.gov is the U.S. government's official web portal to all federal, state and local government web resources and services.